START_TIME,STEP,MOV.,AL01,t_acc.,AL02,t_acc.,E37,t_acc.,H21,t_acc.
1979-08-03 09:00:33.050 ,0,0,0.,24.0,0.,24.0,0.,24.0,0.,24.0
1979-08-03 09:00:57.050 ,0,1,0.,24.0,0.,24.0,0.,24.0,0.,24.0
1979-08-03 09:01:21.050 ,0,0,0.,24.0,0.,24.0,2.,24.0,0.,24.0
1979-08-03 09:01:45.050 ,1,1,0.,24.0,0.,24.0,0.,24.0,0.,24.0
1979-08-03 09:02:09.050 ,1,0,0.,24.0,0.,24.0,0.,24.0,0.,24.0
1979-08-03 09:02:33.050 ,2,1,0.,24.0,0.,24.0,0.,24.0,0.,24.0
1979-08-03 09:02:57.050 ,2,0,2.,24.0,0.,24.0,0.,24.0,0.,24.0
1979-08-03 09:03:21.050 ,3,1,0.,24.0,0.,24.0,0.,24.0,0.,24.0
1979-08-03 09:03:45.050 ,3,0,0.,24.0,0.,24.0,0.,24.0,0.,24.0
1979-08-03 09:04:09.050 ,4,1,0.,24.0,0.,24.0,2.,24.0,0.,24.0
1979-08-03 09:04:33.050 ,4,0,0.,24.0,0.,24.0,2.,24.0,0.,24.0
1979-08-03 09:04:57.050 ,5,1,0.,24.0,1.,24.0,0.,24.0,0.,24.0
1979-08-03 09:05:21.050 ,5,0,0.,24.0,0.,24.0,0.,24.0,0.,24.0
1979-08-03 09:05:45.050 ,6,1,0.,24.0,0.,24.0,0.,24.0,0.,24.0
1979-08-03 09:06:09.050 ,6,0,0.,24.0,0.,24.0,0.,24.0,0.,24.0
1979-08-03 09:06:33.050 ,0,0,,0,,0,,0,,0
1979-08-03 09:06:57.050 ,0,0,,0,,0,,0,,0
1979-08-03 09:08:24.050 ,0,0,,0,,0,,0,,0
1979-08-03 09:08:33.050 ,6,1,0.,24.0,0.,24.0,0.,24.0,0.,24.0
1979-08-03 09:08:57.050 ,5,1,13.,24.0,0.,24.0,2.,24.0,0.,24.0
1979-08-03 09:09:21.050 ,1,1,0.,24.0,0.,24.0,0.,24.0,0.,24.0
1979-08-03 09:09:45.050 ,2,1,0.,24.0,0.,24.0,1.,24.0,0.,24.0
1979-08-03 09:10:09.050 ,6,1,0.,24.0,0.,24.0,1.,24.0,0.,24.0
1979-08-03 09:10:33.050 ,5,1,11.,24.0,0.,24.0,1.,24.0,0.,24.0
1979-08-03 09:10:57.050 ,1,1,1.,24.0,0.,24.0,0.,24.0,0.,24.0
1979-08-03 09:11:21.050 ,2,1,0.,24.0,0.,24.0,0.,24.0,0.,24.0
1979-08-03 09:11:45.050 ,6,1,0.,24.0,1.,24.0,1.,24.0,0.,24.0
1979-08-03 09:12:09.050 ,5,1,13.,24.0,0.,24.0,0.,24.0,0.,24.0
1979-08-03 09:12:33.050 ,1,1,0.,24.0,0.,24.0,0.,24.0,0.,24.0
1979-08-03 09:12:57.050 ,2,1,1.,24.0,0.,24.0,0.,24.0,0.,24.0
1979-08-03 09:13:21.050 ,6,1,0.,24.0,0.,24.0,0.,24.0,0.,24.0
1979-08-03 09:13:45.050 ,5,1,13.,24.0,0.,24.0,1.,24.0,0.,24.0
1979-08-03 09:14:09.050 ,1,1,0.,24.0,0.,24.0,2.,24.0,0.,24.0
1979-08-03 09:14:33.050 ,2,1,0.,24.0,0.,24.0,0.,24.0,0.,24.0
1979-08-03 09:14:57.050 ,6,1,0.,24.0,0.,24.0,0.,24.0,0.,24.0
1979-08-03 09:15:21.050 ,5,1,18.,24.0,0.,24.0,0.,24.0,0.,24.0
1979-08-03 09:15:45.050 ,1,1,0.,24.0,0.,24.0,0.,24.0,0.,24.0
1979-08-03 09:16:09.050 ,2,1,0.,24.0,0.,24.0,0.,24.0,0.,24.0
1979-08-03 09:16:33.050 ,6,1,0.,24.0,0.,24.0,0.,24.0,0.,24.0
1979-08-03 09:16:57.050 ,5,1,11.,24.0,0.,24.0,0.,24.0,0.,24.0
1979-08-03 09:17:21.050 ,1,1,0.,24.0,0.,24.0,1.,24.0,0.,24.0
1979-08-03 09:17:45.050 ,0,0,0.,24.0,0.,24.0,0.,24.0,0.,24.0
1979-08-03 09:18:09.050 ,0,0,0.,24.0,0.,24.0,0.,24.0,0.,24.0
1979-08-03 09:18:33.050 ,5,1,14.,24.0,0.,24.0,0.,24.0,0.,24.0
1979-08-03 09:18:57.050 ,5,0,0.,24.0,1.,24.0,1.,24.0,0.,24.0
1979-08-03 09:19:21.050 ,4,1,0.,24.0,0.,24.0,0.,24.0,0.,24.0
1979-08-03 09:19:45.050 ,4,0,0.,24.0,0.,24.0,0.,24.0,0.,24.0
1979-08-03 09:20:09.050 ,3,1,0.,24.0,0.,24.0,0.,24.0,0.,24.0
1979-08-03 09:20:33.050 ,3,0,0.,24.0,0.,24.0,2.,24.0,0.,24.0
1979-08-03 09:20:57.050 ,2,1,0.,24.0,0.,24.0,0.,24.0,0.,24.0
1979-08-03 09:21:21.050 ,2,0,0.,24.0,0.,24.0,0.,24.0,0.,24.0
1979-08-03 09:21:45.050 ,1,1,0.,24.0,0.,24.0,1.,24.0,0.,24.0
1979-08-03 09:22:09.050 ,1,0,0.,24.0,0.,24.0,0.,24.0,0.,24.0
1979-08-03 09:22:33.050 ,0,1,0.,24.0,0.,24.0,1.,24.0,0.,24.0
1979-08-03 09:22:57.050 ,0,0,0.,24.0,0.,24.0,1.,24.0,0.,24.0
1979-08-03 09:23:21.050 ,0,1,1.,24.0,0.,24.0,0.,24.0,0.,24.0
1979-08-03 09:23:45.050 ,0,0,0.,24.0,0.,24.0,0.,24.0,0.,24.0
1979-08-03 09:24:09.050 ,1,1,0.,24.0,0.,24.0,0.,24.0,0.,24.0
1979-08-03 09:24:33.050 ,1,0,0.,24.0,0.,24.0,0.,24.0,0.,24.0
1979-08-03 09:24:57.050 ,2,1,0.,24.0,1.,24.0,0.,24.0,0.,24.0
1979-08-03 09:25:21.050 ,2,0,0.,24.0,0.,24.0,0.,24.0,0.,24.0
1979-08-03 09:25:45.050 ,3,1,0.,24.0,1.,24.0,2.,24.0,0.,24.0
1979-08-03 09:26:09.050 ,3,0,0.,24.0,0.,24.0,2.,24.0,0.,24.0
1979-08-03 09:26:33.050 ,4,1,1.,24.0,0.,24.0,0.,24.0,0.,24.0
1979-08-03 09:26:57.050 ,4,0,0.,24.0,0.,24.0,0.,24.0,0.,24.0
1979-08-03 09:27:21.050 ,5,1,0.,24.0,0.,24.0,0.,24.0,0.,24.0
1979-08-03 09:27:45.050 ,5,0,0.,24.0,0.,24.0,3.,24.0,0.,24.0
1979-08-03 09:28:09.050 ,6,1,0.,24.0,0.,24.0,0.,24.0,0.,24.0
1979-08-03 09:28:33.050 ,6,0,1.,24.0,0.,24.0,1.,24.0,0.,24.0
1979-08-03 09:28:57.050 ,7,1,9.,24.0,0.,24.0,0.,24.0,0.,24.0
1979-08-03 09:29:21.050 ,7,0,27.,24.0,0.,24.0,1.,24.0,0.,24.0
1979-08-03 09:29:45.050 ,7,1,29.,24.0,0.,24.0,0.,24.0,0.,24.0
1979-08-03 09:30:09.050 ,7,0,25.,24.0,0.,24.0,0.,24.0,0.,24.0
1979-08-03 09:30:33.050 ,6,1,21.,24.0,0.,24.0,0.,24.0,0.,24.0
1979-08-03 09:30:57.050 ,6,0,0.,24.0,0.,24.0,1.,24.0,0.,24.0
1979-08-03 09:31:21.050 ,5,1,0.,24.0,0.,24.0,0.,24.0,0.,24.0
1979-08-03 09:31:45.050 ,5,0,0.,24.0,0.,24.0,0.,24.0,0.,24.0
1979-08-03 09:32:09.050 ,4,1,1.,24.0,0.,24.0,1.,24.0,0.,24.0
1979-08-03 09:32:33.050 ,4,0,0.,24.0,0.,24.0,0.,24.0,0.,24.0
1979-08-03 09:32:57.050 ,3,1,0.,24.0,0.,24.0,0.,24.0,0.,24.0
1979-08-03 09:33:21.050 ,3,0,0.,24.0,0.,24.0,1.,24.0,0.,24.0
1979-08-03 09:33:45.050 ,2,1,0.,24.0,0.,24.0,0.,24.0,0.,24.0
1979-08-03 09:34:09.050 ,2,0,0.,24.0,0.,24.0,0.,24.0,0.,24.0
1979-08-03 09:34:33.050 ,1,1,0.,24.0,0.,24.0,0.,24.0,0.,24.0
1979-08-03 09:34:57.050 ,1,0,0.,24.0,0.,24.0,1.,24.0,0.,24.0
1979-08-03 09:35:21.050 ,0,1,0.,24.0,0.,24.0,0.,24.0,0.,24.0
1979-08-03 09:35:45.050 ,0,0,0.,24.0,0.,24.0,0.,24.0,0.,24.0
1979-08-03 09:36:09.050 ,0,1,0.,24.0,1.,24.0,1.,24.0,0.,24.0
1979-08-03 09:36:33.050 ,0,0,0.,24.0,0.,24.0,2.,24.0,0.,24.0
1979-08-03 09:36:57.050 ,1,1,0.,24.0,0.,24.0,0.,24.0,0.,24.0
1979-08-03 09:37:21.050 ,1,0,0.,24.0,0.,24.0,1.,24.0,0.,24.0
1979-08-03 09:37:45.050 ,2,1,0.,24.0,0.,24.0,0.,24.0,0.,24.0
1979-08-03 09:38:09.050 ,2,0,0.,24.0,0.,24.0,0.,24.0,0.,24.0
1979-08-03 09:38:33.050 ,3,1,0.,24.0,0.,24.0,1.,24.0,0.,24.0
1979-08-03 09:38:57.050 ,3,0,0.,24.0,0.,24.0,0.,24.0,0.,24.0
1979-08-03 09:39:21.050 ,4,1,0.,24.0,0.,24.0,0.,24.0,0.,24.0
1979-08-03 09:39:45.050 ,4,0,0.,24.0,0.,24.0,1.,24.0,0.,24.0
1979-08-03 09:40:09.050 ,5,1,0.,24.0,0.,24.0,1.,24.0,0.,24.0
1979-08-03 09:40:33.050 ,5,0,0.,24.0,0.,24.0,0.,24.0,0.,24.0
1979-08-03 09:40:57.050 ,6,1,0.,24.0,0.,24.0,0.,24.0,0.,24.0
1979-08-03 09:41:21.050 ,6,0,0.,24.0,0.,24.0,1.,24.0,0.,24.0
1979-08-03 09:41:45.050 ,7,1,9.,24.0,1.,24.0,0.,24.0,0.,24.0
1979-08-03 09:42:09.050 ,7,0,18.,24.0,0.,24.0,1.,24.0,0.,24.0
1979-08-03 09:42:33.050 ,7,1,28.,24.0,0.,24.0,0.,24.0,0.,24.0
1979-08-03 09:42:57.050 ,7,0,33.,24.0,0.,24.0,1.,24.0,0.,24.0
1979-08-03 09:43:21.050 ,6,1,25.,24.0,0.,24.0,4.,24.0,0.,24.0
1979-08-03 09:43:45.050 ,6,0,0.,24.0,0.,24.0,0.,24.0,0.,24.0
1979-08-03 09:44:09.050 ,5,1,1.,24.0,0.,24.0,1.,24.0,0.,24.0
1979-08-03 09:44:33.050 ,5,0,0.,24.0,0.,24.0,2.,24.0,0.,24.0
1979-08-03 09:44:57.050 ,4,1,0.,24.0,0.,24.0,4.,24.0,0.,24.0
1979-08-03 09:45:21.050 ,4,0,0.,24.0,0.,24.0,1.,24.0,0.,24.0
1979-08-03 09:45:45.050 ,3,1,0.,24.0,0.,24.0,0.,24.0,0.,24.0
1979-08-03 09:46:09.050 ,3,0,0.,24.0,0.,24.0,1.,24.0,0.,24.0
1979-08-03 09:46:33.050 ,2,1,0.,24.0,0.,24.0,0.,24.0,0.,24.0
1979-08-03 09:46:57.050 ,2,0,1.,24.0,0.,24.0,0.,24.0,0.,24.0
1979-08-03 09:47:21.050 ,1,1,0.,24.0,0.,24.0,0.,24.0,0.,24.0
1979-08-03 09:47:45.050 ,1,0,0.,24.0,0.,24.0,0.,24.0,0.,24.0
1979-08-03 09:48:09.050 ,0,1,0.,24.0,0.,24.0,1.,24.0,0.,24.0
1979-08-03 09:48:33.050 ,0,0,0.,24.0,0.,24.0,0.,24.0,0.,24.0
1979-08-03 09:48:57.050 ,0,1,0.,24.0,0.,24.0,0.,24.0,0.,24.0
1979-08-03 09:49:21.050 ,0,0,0.,24.0,0.,24.0,0.,24.0,0.,24.0
1979-08-03 09:49:45.050 ,1,1,0.,24.0,0.,24.0,0.,24.0,0.,24.0
1979-08-03 09:50:09.050 ,1,0,0.,24.0,0.,24.0,0.,24.0,0.,24.0
1979-08-03 09:50:33.050 ,2,1,0.,24.0,0.,24.0,1.,24.0,0.,24.0
1979-08-03 09:50:57.050 ,2,0,0.,24.0,0.,24.0,0.,24.0,0.,24.0
1979-08-03 09:51:21.050 ,3,1,0.,24.0,0.,24.0,0.,24.0,0.,24.0
1979-08-03 09:51:45.050 ,3,0,0.,24.0,0.,24.0,0.,24.0,0.,24.0
1979-08-03 09:52:09.050 ,4,1,0.,24.0,0.,24.0,0.,24.0,0.,24.0
1979-08-03 09:52:33.050 ,4,0,0.,24.0,0.,24.0,1.,24.0,0.,24.0
1979-08-03 09:52:57.050 ,5,1,0.,24.0,0.,24.0,0.,24.0,0.,24.0
1979-08-03 09:53:21.050 ,5,0,0.,24.0,0.,24.0,0.,24.0,0.,24.0
1979-08-03 09:53:45.050 ,6,1,0.,24.0,0.,24.0,0.,24.0,0.,24.0
1979-08-03 09:54:09.050 ,6,0,0.,24.0,0.,24.0,1.,24.0,0.,24.0
1979-08-03 09:54:33.050 ,7,0,5.,24.0,0.,24.0,1.,24.0,0.,24.0
1979-08-03 09:54:57.050 ,7,0,24.,24.0,0.,24.0,0.,24.0,0.,24.0
1979-08-03 09:55:21.050 ,5,1,17.,24.0,0.,24.0,1.,24.0,0.,24.0
1979-08-03 09:55:45.050 ,1,1,0.,24.0,0.,24.0,0.,24.0,0.,24.0
1979-08-03 09:56:09.050 ,2,1,0.,24.0,0.,24.0,0.,24.0,0.,24.0
1979-08-03 09:56:33.050 ,6,1,1.,24.0,0.,24.0,0.,24.0,0.,24.0
1979-08-03 09:56:57.050 ,5,1,18.,24.0,0.,24.0,2.,24.0,0.,24.0
1979-08-03 09:57:21.050 ,1,1,0.,24.0,0.,24.0,0.,24.0,0.,24.0
1979-08-03 09:57:45.050 ,2,1,0.,24.0,0.,24.0,1.,24.0,0.,24.0
1979-08-03 09:58:09.050 ,6,1,0.,24.0,0.,24.0,2.,24.0,0.,24.0
1979-08-03 09:58:33.050 ,5,1,21.,24.0,0.,24.0,0.,24.0,0.,24.0
1979-08-03 09:58:57.050 ,1,1,0.,24.0,0.,24.0,1.,24.0,0.,24.0
1979-08-03 09:59:21.050 ,2,1,0.,24.0,0.,24.0,1.,24.0,0.,24.0
1979-08-03 09:59:45.050 ,6,1,0.,24.0,0.,24.0,0.,24.0,0.,24.0
1979-08-03 10:00:09.050 ,5,1,17.,24.0,0.,24.0,0.,24.0,0.,24.0
1979-08-03 10:00:33.050 ,1,1,0.,24.0,0.,24.0,0.,24.0,0.,24.0
1979-08-03 10:00:57.050 ,2,1,0.,24.0,0.,24.0,1.,24.0,0.,24.0
1979-08-03 10:01:21.050 ,6,1,0.,24.0,0.,24.0,1.,24.0,0.,24.0
1979-08-03 10:01:45.050 ,5,1,8.,24.0,0.,24.0,1.,24.0,0.,24.0
1979-08-03 10:02:09.050 ,1,1,0.,24.0,0.,24.0,0.,24.0,0.,24.0
1979-08-03 10:02:33.050 ,2,1,0.,24.0,1.,24.0,0.,24.0,0.,24.0
1979-08-03 10:02:57.050 ,6,1,0.,24.0,0.,24.0,0.,24.0,0.,24.0
1979-08-03 10:03:21.050 ,5,1,15.,24.0,0.,24.0,0.,24.0,0.,24.0
1979-08-03 10:03:45.050 ,1,1,0.,24.0,0.,24.0,1.,24.0,0.,24.0
1979-08-03 10:04:10.250 ,2,1,0.,24.0,0.,24.0,4.,24.0,0.,24.0
1979-08-03 10:04:33.050 ,6,1,0.,24.0,0.,24.0,0.,24.0,0.,24.0
1979-08-03 10:04:57.050 ,0,0,10.,24.0,0.,24.0,0.,24.0,0.,24.0
1979-08-03 10:05:21.050 ,0,0,0.,24.0,0.,24.0,0.,24.0,0.,24.0
1979-08-03 10:05:45.050 ,0,0,0.,24.0,0.,24.0,0.,24.0,0.,24.0
1979-08-03 10:06:09.050 ,0,0,1.,24.0,0.,24.0,0.,24.0,0.,24.0
1979-08-03 10:06:33.050 ,5,1,12.,24.0,0.,24.0,0.,24.0,0.,24.0
1979-08-03 10:06:57.050 ,5,0,0.,24.0,0.,24.0,0.,24.0,0.,24.0
1979-08-03 10:07:21.050 ,4,1,0.,24.0,0.,24.0,2.,24.0,0.,24.0
1979-08-03 10:07:45.050 ,4,0,0.,24.0,0.,24.0,0.,24.0,0.,24.0
1979-08-03 10:08:09.050 ,3,1,0.,24.0,0.,24.0,1.,24.0,0.,24.0
1979-08-03 10:08:33.050 ,3,0,0.,24.0,0.,24.0,0.,24.0,0.,24.0
1979-08-03 10:08:57.050 ,2,1,0.,24.0,0.,24.0,1.,24.0,0.,24.0
1979-08-03 10:09:21.050 ,2,0,0.,24.0,0.,24.0,0.,24.0,0.,24.0
1979-08-03 10:09:45.050 ,1,1,0.,24.0,0.,24.0,0.,24.0,0.,24.0
1979-08-03 10:10:09.050 ,1,0,0.,24.0,0.,24.0,0.,24.0,0.,24.0
1979-08-03 10:10:33.050 ,0,1,0.,24.0,0.,24.0,0.,24.0,0.,24.0
1979-08-03 10:10:57.050 ,0,0,0.,24.0,0.,24.0,0.,24.0,0.,24.0
1979-08-03 10:11:21.050 ,0,1,,0,,0,,0,,0
1979-08-03 10:11:45.050 ,0,0,0.,24.0,0.,24.0,1.,24.0,0.,24.0
1979-08-03 10:12:11.450 ,1,1,0.,24.0,0.,24.0,1.,24.0,0.,24.0
1979-08-03 10:12:33.050 ,1,0,1.,24.0,0.,24.0,0.,24.0,0.,24.0
1979-08-03 10:12:57.050 ,2,1,0.,24.0,0.,24.0,1.,24.0,0.,24.0
1979-08-03 10:13:21.050 ,2,0,0.,24.0,0.,24.0,0.,24.0,0.,24.0
1979-08-03 10:13:45.050 ,3,1,0.,24.0,0.,24.0,0.,24.0,0.,24.0
1979-08-03 10:14:09.050 ,3,0,1.,24.0,0.,24.0,0.,24.0,0.,24.0
1979-08-03 10:14:33.050 ,4,1,0.,24.0,0.,24.0,1.,24.0,0.,24.0
1979-08-03 10:14:57.050 ,4,0,0.,24.0,0.,24.0,0.,24.0,0.,24.0
1979-08-03 10:15:21.050 ,5,1,0.,24.0,1.,24.0,0.,24.0,0.,24.0
1979-08-03 10:15:45.050 ,5,0,0.,24.0,0.,24.0,0.,24.0,0.,24.0
1979-08-03 10:16:09.050 ,6,1,0.,24.0,0.,24.0,1.,24.0,0.,24.0
1979-08-03 10:16:33.050 ,6,0,0.,24.0,0.,24.0,1.,24.0,0.,24.0
1979-08-03 10:16:57.050 ,7,1,4.,24.0,0.,24.0,1.,24.0,0.,24.0
1979-08-03 10:17:21.050 ,7,0,41.,24.0,0.,24.0,0.,24.0,0.,24.0
1979-08-03 10:17:45.050 ,7,1,25.,24.0,0.,24.0,0.,24.0,0.,24.0
1979-08-03 10:18:09.050 ,7,0,29.,24.0,0.,24.0,1.,24.0,0.,24.0
1979-08-03 10:18:33.050 ,6,1,26.,24.0,0.,24.0,1.,24.0,0.,24.0
1979-08-03 10:18:57.050 ,6,0,0.,24.0,0.,24.0,0.,24.0,0.,24.0
1979-08-03 10:19:21.050 ,5,1,0.,24.0,0.,24.0,2.,24.0,0.,24.0
1979-08-03 10:19:45.050 ,5,0,0.,24.0,0.,24.0,0.,24.0,0.,24.0
1979-08-03 10:20:09.050 ,4,1,0.,24.0,0.,24.0,0.,24.0,0.,24.0
1979-08-03 10:20:33.050 ,4,0,0.,24.0,0.,24.0,0.,24.0,0.,24.0
1979-08-03 10:20:57.050 ,3,1,0.,24.0,0.,24.0,0.,24.0,0.,24.0
1979-08-03 10:21:21.050 ,3,0,1.,24.0,0.,24.0,0.,24.0,0.,24.0
1979-08-03 10:21:45.050 ,2,1,0.,24.0,0.,24.0,0.,24.0,0.,24.0
1979-08-03 10:22:09.050 ,2,0,0.,24.0,0.,24.0,1.,24.0,0.,24.0
1979-08-03 10:22:33.050 ,1,1,0.,24.0,0.,24.0,0.,24.0,0.,24.0
1979-08-03 10:22:57.050 ,1,0,0.,24.0,0.,24.0,0.,24.0,0.,24.0
1979-08-03 10:23:21.050 ,0,1,0.,24.0,0.,24.0,0.,24.0,0.,24.0
1979-08-03 10:23:45.050 ,0,0,0.,24.0,0.,24.0,0.,24.0,0.,24.0
1979-08-03 10:24:09.050 ,0,1,0.,24.0,0.,24.0,1.,24.0,0.,24.0
1979-08-03 10:24:33.050 ,0,0,0.,24.0,0.,24.0,1.,24.0,0.,24.0
1979-08-03 10:24:57.050 ,1,1,0.,24.0,0.,24.0,1.,24.0,0.,24.0
1979-08-03 10:25:21.050 ,1,0,0.,24.0,0.,24.0,0.,24.0,0.,24.0
1979-08-03 10:25:45.050 ,2,1,0.,24.0,0.,24.0,0.,24.0,0.,24.0
1979-08-03 10:26:09.050 ,2,0,0.,24.0,0.,24.0,0.,24.0,0.,24.0
1979-08-03 10:26:33.050 ,3,1,0.,24.0,0.,24.0,0.,24.0,0.,24.0
1979-08-03 10:26:57.050 ,3,0,0.,24.0,0.,24.0,1.,24.0,0.,24.0
1979-08-03 10:27:21.050 ,4,1,0.,24.0,0.,24.0,0.,24.0,0.,24.0
1979-08-03 10:27:45.050 ,4,0,,0,,0,,0,,0
1979-08-03 10:28:09.050 ,5,1,0.,24.0,0.,24.0,0.,24.0,0.,24.0
1979-08-03 10:28:33.050 ,5,0,0.,24.0,0.,24.0,1.,24.0,0.,24.0
1979-08-03 10:28:57.050 ,6,1,0.,24.0,0.,24.0,0.,24.0,0.,24.0
1979-08-03 10:29:21.050 ,6,0,1.,24.0,0.,24.0,1.,24.0,0.,24.0
1979-08-03 10:29:45.050 ,7,1,10.,24.0,0.,24.0,0.,24.0,0.,24.0
1979-08-03 10:30:09.050 ,7,0,31.,24.0,0.,24.0,1.,24.0,0.,24.0
1979-08-03 10:30:33.050 ,7,1,35.,24.0,0.,24.0,0.,24.0,0.,24.0
1979-08-03 10:30:57.050 ,7,0,35.,24.0,0.,24.0,1.,24.0,0.,24.0
1979-08-03 10:31:21.050 ,6,1,17.,24.0,0.,24.0,0.,24.0,0.,24.0
1979-08-03 10:31:45.050 ,6,0,0.,24.0,0.,24.0,1.,24.0,0.,24.0
1979-08-03 10:32:09.050 ,5,1,0.,24.0,0.,24.0,2.,24.0,0.,24.0
1979-08-03 10:32:33.050 ,5,0,0.,24.0,0.,24.0,0.,24.0,0.,24.0
1979-08-03 10:32:57.050 ,4,1,0.,24.0,0.,24.0,0.,24.0,0.,24.0
1979-08-03 10:33:21.050 ,4,0,0.,24.0,0.,24.0,0.,24.0,0.,24.0
1979-08-03 10:33:45.050 ,3,1,0.,24.0,0.,24.0,2.,24.0,0.,24.0
1979-08-03 10:34:09.050 ,3,0,2.,24.0,0.,24.0,2.,24.0,0.,24.0
1979-08-03 10:34:33.050 ,2,1,0.,24.0,0.,24.0,0.,24.0,0.,24.0
1979-08-03 10:34:57.050 ,2,0,0.,24.0,0.,24.0,0.,24.0,0.,24.0
1979-08-03 10:35:21.050 ,1,1,0.,24.0,0.,24.0,0.,24.0,0.,24.0
1979-08-03 10:35:45.050 ,1,0,0.,24.0,0.,24.0,0.,24.0,0.,24.0
1979-08-03 10:36:09.050 ,0,1,0.,24.0,0.,24.0,0.,24.0,0.,24.0
1979-08-03 10:36:33.050 ,0,0,0.,24.0,0.,24.0,1.,24.0,0.,24.0
1979-08-03 10:36:57.050 ,0,1,0.,24.0,0.,24.0,1.,24.0,0.,24.0
1979-08-03 10:37:21.050 ,0,0,0.,24.0,0.,24.0,1.,24.0,0.,24.0
1979-08-03 10:37:45.050 ,1,1,0.,24.0,0.,24.0,0.,24.0,0.,24.0
1979-08-03 10:38:09.050 ,1,0,1.,24.0,0.,24.0,0.,24.0,0.,24.0
1979-08-03 10:38:33.050 ,2,1,0.,24.0,0.,24.0,0.,24.0,0.,24.0
1979-08-03 10:38:57.050 ,2,0,0.,24.0,0.,24.0,1.,24.0,0.,24.0
1979-08-03 10:39:21.050 ,3,1,0.,24.0,0.,24.0,0.,24.0,0.,24.0
1979-08-03 10:39:45.050 ,3,0,,0,,0,,0,,0
1979-08-03 10:40:09.050 ,4,1,0.,24.0,0.,24.0,2.,24.0,0.,24.0
1979-08-03 10:40:33.050 ,4,0,0.,24.0,0.,24.0,1.,24.0,0.,24.0
1979-08-03 10:40:57.050 ,5,1,0.,24.0,0.,24.0,0.,24.0,0.,24.0
1979-08-03 10:41:21.050 ,5,0,0.,24.0,0.,24.0,1.,24.0,0.,24.0
1979-08-03 10:41:45.050 ,6,1,0.,24.0,0.,24.0,0.,24.0,0.,24.0
1979-08-03 10:42:09.050 ,6,0,0.,24.0,0.,24.0,2.,24.0,0.,24.0
1979-08-03 10:42:33.050 ,7,0,8.,24.0,0.,24.0,0.,24.0,0.,24.0
1979-08-03 10:42:57.050 ,0,0,24.,24.0,0.,24.0,1.,24.0,0.,24.0
1979-08-03 10:43:25.250 ,0,0,17.,24.0,0.,24.0,0.,24.0,0.,24.0
1979-08-03 10:43:45.050 ,1,1,0.,24.0,0.,24.0,0.,24.0,0.,24.0
1979-08-03 10:44:09.050 ,2,1,0.,24.0,0.,24.0,0.,24.0,0.,24.0
1979-08-03 10:44:33.050 ,6,1,0.,24.0,0.,24.0,1.,24.0,0.,24.0
1979-08-03 10:44:57.050 ,5,1,10.,24.0,0.,24.0,0.,24.0,0.,24.0
1979-08-03 10:45:21.050 ,1,1,0.,24.0,0.,24.0,2.,24.0,0.,24.0
1979-08-03 10:45:45.050 ,2,1,0.,24.0,0.,24.0,2.,24.0,0.,24.0
1979-08-03 10:46:09.050 ,6,1,0.,24.0,0.,24.0,0.,24.0,0.,24.0
1979-08-03 10:46:33.050 ,5,1,19.,24.0,0.,24.0,0.,24.0,0.,24.0
1979-08-03 10:46:57.050 ,1,1,0.,24.0,0.,24.0,2.,24.0,0.,24.0
1979-08-03 10:47:21.050 ,2,1,1.,24.0,0.,24.0,0.,24.0,0.,24.0
1979-08-03 10:47:45.050 ,6,1,0.,24.0,0.,24.0,0.,24.0,0.,24.0
1979-08-03 10:48:09.050 ,5,1,17.,24.0,0.,24.0,0.,24.0,0.,24.0
1979-08-03 10:48:33.050 ,1,1,0.,24.0,0.,24.0,0.,24.0,0.,24.0
1979-08-03 10:48:57.050 ,2,1,0.,24.0,0.,24.0,0.,24.0,0.,24.0
1979-08-03 10:49:21.050 ,6,1,0.,24.0,0.,24.0,0.,24.0,0.,24.0
1979-08-03 10:49:45.050 ,5,1,19.,24.0,0.,24.0,0.,24.0,0.,24.0
1979-08-03 10:50:09.050 ,1,1,0.,24.0,0.,24.0,0.,24.0,0.,24.0
1979-08-03 10:50:33.050 ,0,0,2.,24.0,0.,24.0,0.,24.0,0.,24.0
1979-08-03 10:50:57.050 ,6,1,0.,24.0,0.,24.0,2.,24.0,0.,24.0
1979-08-03 10:51:21.050 ,5,1,19.,24.0,0.,24.0,0.,24.0,0.,24.0
1979-08-03 10:51:45.050 ,1,1,1.,24.0,0.,24.0,1.,24.0,0.,24.0
1979-08-03 10:52:09.050 ,2,1,0.,24.0,0.,24.0,0.,24.0,0.,24.0
1979-08-03 10:52:33.050 ,6,1,0.,24.0,0.,24.0,0.,24.0,0.,24.0
1979-08-03 10:52:57.050 ,5,1,20.,24.0,0.,24.0,0.,24.0,0.,24.0
1979-08-03 10:53:21.050 ,1,1,0.,24.0,0.,24.0,0.,24.0,0.,24.0
1979-08-03 10:53:45.050 ,0,0,0.,24.0,0.,24.0,0.,24.0,0.,24.0
1979-08-03 10:54:09.050 ,0,0,0.,24.0,0.,24.0,0.,24.0,0.,24.0
1979-08-03 10:54:33.050 ,5,1,6.,24.0,0.,24.0,0.,24.0,0.,24.0
1979-08-03 10:54:57.050 ,5,0,0.,24.0,0.,24.0,0.,24.0,0.,24.0
1979-08-03 10:55:21.050 ,4,1,0.,24.0,0.,24.0,0.,24.0,0.,24.0
1979-08-03 10:55:45.050 ,4,0,0.,24.0,0.,24.0,1.,24.0,0.,24.0
1979-08-03 10:56:09.050 ,3,1,0.,24.0,0.,24.0,0.,24.0,0.,24.0
1979-08-03 10:56:33.050 ,3,0,0.,24.0,0.,24.0,0.,24.0,0.,24.0
1979-08-03 10:56:57.050 ,2,1,0.,24.0,0.,24.0,0.,24.0,0.,24.0
1979-08-03 10:57:21.050 ,2,0,0.,24.0,1.,24.0,0.,24.0,0.,24.0
1979-08-03 10:57:45.050 ,1,1,0.,24.0,0.,24.0,2.,24.0,0.,24.0
1979-08-03 10:58:09.050 ,1,0,0.,24.0,0.,24.0,0.,24.0,0.,24.0
1979-08-03 10:58:33.050 ,0,1,0.,24.0,0.,24.0,1.,24.0,0.,24.0
1979-08-03 10:58:57.050 ,0,0,0.,24.0,0.,24.0,1.,24.0,0.,24.0
1979-08-03 10:59:21.050 ,0,1,0.,24.0,0.,24.0,0.,24.0,0.,24.0
1979-08-03 10:59:45.050 ,0,0,0.,24.0,0.,24.0,0.,24.0,0.,24.0
1979-08-03 11:00:09.050 ,1,1,0.,24.0,0.,24.0,0.,24.0,0.,24.0
1979-08-03 11:00:33.050 ,1,0,0.,24.0,0.,24.0,0.,24.0,0.,24.0
1979-08-03 11:00:57.050 ,2,1,0.,24.0,0.,24.0,0.,24.0,0.,24.0
1979-08-03 11:01:21.050 ,2,0,0.,24.0,0.,24.0,0.,24.0,0.,24.0
1979-08-03 11:01:45.050 ,3,1,0.,24.0,0.,24.0,1.,24.0,0.,24.0
1979-08-03 11:02:09.040 ,3,0,0.,24.0,0.,24.0,0.,24.0,0.,24.0
1979-08-03 11:02:33.040 ,4,1,0.,24.0,0.,24.0,0.,24.0,0.,24.0
1979-08-03 11:02:57.040 ,4,0,0.,24.0,0.,24.0,0.,24.0,0.,24.0
1979-08-03 11:03:21.040 ,5,1,0.,24.0,0.,24.0,0.,24.0,0.,24.0
1979-08-03 11:03:45.040 ,5,0,0.,24.0,0.,24.0,0.,24.0,0.,24.0
1979-08-03 11:04:09.040 ,6,1,1.,24.0,0.,24.0,0.,24.0,0.,24.0
1979-08-03 11:04:33.050 ,6,0,0.,24.0,0.,24.0,0.,24.0,0.,24.0
1979-08-03 11:04:57.050 ,7,1,11.,24.0,0.,24.0,0.,24.0,0.,24.0
1979-08-03 11:05:21.050 ,7,0,32.,24.0,0.,24.0,0.,24.0,0.,24.0
1979-08-03 11:05:45.050 ,7,1,34.,24.0,1.,24.0,0.,24.0,0.,24.0
1979-08-03 11:06:09.040 ,7,0,27.,24.0,0.,24.0,0.,24.0,0.,24.0
1979-08-03 11:06:33.050 ,6,1,19.,24.0,0.,24.0,0.,24.0,0.,24.0
1979-08-03 11:06:57.050 ,6,0,0.,24.0,0.,24.0,0.,24.0,0.,24.0
1979-08-03 11:07:21.050 ,5,1,0.,24.0,0.,24.0,0.,24.0,0.,24.0
1979-08-03 11:07:45.050 ,5,0,0.,24.0,0.,24.0,0.,24.0,0.,24.0
1979-08-03 11:08:09.040 ,4,1,0.,24.0,0.,24.0,0.,24.0,0.,24.0
1979-08-03 11:08:33.040 ,4,0,0.,24.0,0.,24.0,0.,24.0,0.,24.0
1979-08-03 11:08:57.040 ,3,1,0.,24.0,0.,24.0,0.,24.0,0.,24.0
1979-08-03 11:09:21.040 ,3,0,0.,24.0,0.,24.0,0.,24.0,0.,24.0
1979-08-03 11:09:45.040 ,2,1,0.,24.0,0.,24.0,0.,24.0,0.,24.0
1979-08-03 11:10:09.040 ,2,0,0.,24.0,0.,24.0,0.,24.0,0.,24.0
1979-08-03 11:10:33.040 ,1,1,0.,24.0,0.,24.0,1.,24.0,0.,24.0
1979-08-03 11:10:57.040 ,1,0,0.,24.0,0.,24.0,2.,24.0,0.,24.0
1979-08-03 11:11:21.040 ,0,1,0.,24.0,0.,24.0,1.,24.0,0.,24.0
1979-08-03 11:11:45.040 ,0,0,0.,24.0,0.,24.0,0.,24.0,0.,24.0
1979-08-03 11:12:09.040 ,0,1,0.,24.0,0.,24.0,0.,24.0,0.,24.0
1979-08-03 11:12:33.040 ,0,0,0.,24.0,0.,24.0,0.,24.0,0.,24.0
1979-08-03 11:12:57.040 ,1,1,0.,24.0,0.,24.0,0.,24.0,0.,24.0
1979-08-03 11:13:21.040 ,1,0,0.,24.0,0.,24.0,0.,24.0,0.,24.0
1979-08-03 11:13:45.040 ,0,0,0.,24.0,0.,24.0,0.,24.0,0.,24.0
1979-08-03 11:14:09.040 ,0,0,0.,24.0,0.,24.0,1.,24.0,0.,24.0
1979-08-03 11:14:33.040 ,3,1,0.,24.0,0.,24.0,0.,24.0,0.,24.0
1979-08-03 11:14:57.040 ,3,0,0.,24.0,0.,24.0,0.,24.0,0.,24.0
1979-08-03 11:15:21.040 ,4,1,0.,24.0,0.,24.0,0.,24.0,0.,24.0
1979-08-03 11:15:45.040 ,4,0,1.,24.0,0.,24.0,0.,24.0,0.,24.0
1979-08-03 11:16:09.040 ,5,1,0.,24.0,0.,24.0,0.,24.0,0.,24.0
1979-08-03 11:16:33.040 ,5,0,0.,24.0,0.,24.0,0.,24.0,0.,24.0
1979-08-03 11:16:57.040 ,6,1,0.,24.0,0.,24.0,0.,24.0,0.,24.0
1979-08-03 11:17:21.050 ,6,0,0.,24.0,0.,24.0,0.,24.0,0.,24.0
1979-08-03 11:17:45.050 ,7,1,10.,24.0,0.,24.0,0.,24.0,0.,24.0
1979-08-03 11:18:09.050 ,7,0,35.,24.0,0.,24.0,0.,24.0,0.,24.0
1979-08-03 11:18:33.040 ,7,1,21.,24.0,0.,24.0,0.,24.0,0.,24.0
1979-08-03 11:18:57.040 ,7,0,31.,24.0,0.,24.0,0.,24.0,0.,24.0
1979-08-03 11:19:21.040 ,6,1,18.,24.0,0.,24.0,0.,24.0,0.,24.0
1979-08-03 11:19:45.040 ,6,0,0.,24.0,0.,24.0,0.,24.0,0.,24.0
1979-08-03 11:20:09.040 ,5,1,0.,24.0,0.,24.0,0.,24.0,0.,24.0
1979-08-03 11:20:33.040 ,5,0,0.,24.0,0.,24.0,0.,24.0,0.,24.0
1979-08-03 11:20:57.040 ,4,1,0.,24.0,0.,24.0,0.,24.0,0.,24.0
1979-08-03 11:21:21.040 ,4,0,0.,24.0,0.,24.0,0.,24.0,0.,24.0
1979-08-03 11:21:45.040 ,3,1,1.,24.0,0.,24.0,0.,24.0,0.,24.0
1979-08-03 11:22:09.040 ,3,0,0.,24.0,0.,24.0,0.,24.0,0.,24.0
1979-08-03 11:22:33.040 ,2,1,0.,24.0,0.,24.0,0.,24.0,0.,24.0
1979-08-03 11:22:57.040 ,2,0,0.,24.0,0.,24.0,0.,24.0,0.,24.0
1979-08-03 11:23:21.040 ,1,1,0.,24.0,0.,24.0,0.,24.0,0.,24.0
1979-08-03 11:23:45.040 ,1,0,0.,24.0,0.,24.0,0.,24.0,0.,24.0
1979-08-03 11:24:09.040 ,0,1,0.,24.0,0.,24.0,0.,24.0,0.,24.0
1979-08-03 11:24:33.040 ,0,0,1.,24.0,0.,24.0,1.,24.0,0.,24.0
1979-08-03 11:24:57.040 ,0,1,0.,24.0,0.,24.0,0.,24.0,0.,24.0
1979-08-03 11:25:21.040 ,0,0,0.,24.0,0.,24.0,0.,24.0,0.,24.0
1979-08-03 11:25:45.040 ,1,1,1.,24.0,0.,24.0,1.,24.0,0.,24.0
1979-08-03 11:26:09.040 ,1,0,1.,24.0,0.,24.0,0.,24.0,0.,24.0
1979-08-03 11:26:33.040 ,2,1,0.,24.0,0.,24.0,1.,24.0,0.,24.0
1979-08-03 11:26:57.040 ,2,0,0.,24.0,0.,24.0,0.,24.0,0.,24.0
1979-08-03 11:27:21.040 ,3,1,0.,24.0,0.,24.0,1.,24.0,0.,24.0
1979-08-03 11:27:45.040 ,3,0,0.,24.0,0.,24.0,0.,24.0,0.,24.0
1979-08-03 11:28:09.040 ,4,1,0.,24.0,0.,24.0,0.,24.0,0.,24.0
1979-08-03 11:28:33.040 ,4,0,0.,24.0,0.,24.0,1.,24.0,0.,24.0
1979-08-03 11:28:57.040 ,5,1,0.,24.0,0.,24.0,1.,24.0,0.,24.0
1979-08-03 11:29:21.040 ,5,0,0.,24.0,0.,24.0,1.,24.0,0.,24.0
1979-08-03 11:29:45.040 ,6,1,0.,24.0,0.,24.0,0.,24.0,0.,24.0
1979-08-03 11:30:09.040 ,6,0,2.,24.0,0.,24.0,0.,24.0,0.,24.0
1979-08-03 11:30:33.040 ,7,0,10.,24.0,0.,24.0,0.,24.0,0.,24.0
1979-08-03 11:30:57.040 ,7,0,31.,24.0,0.,24.0,1.,24.0,0.,24.0
1979-08-03 11:31:21.040 ,5,1,9.,24.0,0.,24.0,1.,24.0,0.,24.0
1979-08-03 11:31:45.040 ,1,1,0.,24.0,0.,24.0,0.,24.0,0.,24.0
1979-08-03 11:32:09.040 ,2,1,0.,24.0,0.,24.0,1.,24.0,0.,24.0
1979-08-03 11:32:33.040 ,6,1,0.,24.0,0.,24.0,1.,24.0,0.,24.0
1979-08-03 11:32:57.040 ,5,1,14.,24.0,0.,24.0,0.,24.0,0.,24.0
1979-08-03 11:33:21.040 ,1,1,0.,24.0,0.,24.0,1.,24.0,0.,24.0
1979-08-03 11:33:45.040 ,2,1,0.,24.0,0.,24.0,0.,24.0,0.,24.0
1979-08-03 11:34:09.040 ,6,1,0.,24.0,0.,24.0,2.,24.0,0.,24.0
1979-08-03 11:34:33.040 ,5,1,12.,24.0,0.,24.0,0.,24.0,0.,24.0
1979-08-03 11:34:57.040 ,1,1,1.,24.0,1.,24.0,0.,24.0,0.,24.0
1979-08-03 11:35:21.040 ,2,1,0.,24.0,0.,24.0,0.,24.0,0.,24.0
1979-08-03 11:35:45.040 ,6,1,0.,24.0,0.,24.0,0.,24.0,0.,24.0